This demonstration page uses our WeatherBlox Daily Observations layout. Learn more.

41.55636, -103.73856

Hourly Observations for April 22, 2015

Temp ( °F °C ) Dew Point ( °F °C ) Humidity (%) Winds ( mph kmh ) Pressure ( in mb ) Visibility ( mi km ) Precip ( " mm )
12:53 am 00:53 Clear 36 2.2 27 -2.8 70 70 ESE 7 11 29.96 1015 10 16.0934 0 0
1:53 am 01:53 Clear 33 0.6 26 -3.3 75 75 ESE 6 9 29.96 1015 10 16.0934 0 0
2:53 am 02:53 Clear 33 0.6 26 -3.3 75 75 E 8 13 29.95 1014 10 16.0934 0 0
3:53 am 03:53 Clear 33 0.6 26 -3.3 75 75 E 8 13 29.94 1014 10 16.0934 0 0
4:53 am 04:53 Clear 33 0.6 27 -2.8 78 78 E 8 13 29.93 1014 10 16.0934 0 0
5:53 am 05:53 Clear 32 0 26 -3.3 79 79 ESE 6 9 29.93 1013 10 16.0934 0 0
6:53 am 06:53 Sunny 34 1.1 28 -2.2 79 79 E 7 11 29.93 1014 10 16.0934 0 0
7:53 am 07:53 Sunny 40 4.4 31 -0.6 70 70 SE 9 15 29.93 1014 10 16.0934 0 0
8:53 am 08:53 Sunny 46 7.8 32 0 58 58 SE 9 15 29.91 1013 10 16.0934 0 0
9:53 am 09:53 Sunny 52 11.1 34 1.1 50 50 SE 8 13 29.89 1012 10 16.0934 0 0
10:53 am 10:53 Sunny 58 14.4 35 1.7 42 42 SSE 9 15 29.87 1011 10 16.0934 0 0
11:53 am 11:53 Sunny 62 16.7 36 2.2 38 38 ESE 10 17 29.85 1011 10 16.0934 0 0
12:53 pm 12:53 Sunny 65 18.3 36 2.2 34 34 VRB 7 11 29.82 1010 10 16.0934 0 0
1:53 pm 13:53 Sunny 68 20 38 3.3 33 33 VRB 6 9 29.8 1009 10 16.0934 0 0
2:53 pm 14:53 Sunny 69 20.6 37 2.8 31 31 E 8 13 29.79 1009 10 16.0934 0 0
3:53 pm 15:53 Sunny 71 21.7 36 2.2 28 28 SSE 6 9 29.77 1008 10 16.0934 0 0
4:53 pm 16:53 Sunny 70 21.1 34 1.1 27 27 undefined N/A 29.76 1008 10 16.0934 0 0
5:53 pm 17:53 Sunny 69 20.6 34 1.1 27 27 SE 8 13 29.76 1008 10 16.0934 0 0
6:53 pm 18:53 Partly Cloudy 66 18.9 35 1.7 32 32 ESE 10 17 29.76 1008 10 16.0934 0 0
7:53 pm 19:53 Mostly Cloudy 62 16.7 37 2.8 40 40 E 10 17 29.77 1008 10 16.0934 0 0
8:53 pm 20:53 Mostly Clear 57 13.9 40 4.4 53 53 S 9 15 29.79 1009 10 16.0934 0 0
9:53 pm 21:53 Clear 50 10 40 4.4 68 68 E 8 13 29.8 1009 10 16.0934 0 0
10:53 pm 22:53 Clear 51 10.6 41 5 69 69 SE 7 11 29.78 1009 10 16.0934 0 0
11:53 pm 23:53 Clear 47 8.3 39 3.9 74 74 ESE 8 13 29.79 1009 10 16.0934 0 0

Powered by AerisWeather